Time,TemperatureF,DewpointF,PressureIn,WindDirection,WindDirectionDegrees,WindSpeedMPH,WindSpeedGustMPH,Humidity,HourlyPrecipIn,Conditions,Clouds,dailyrainin,SoftwareType,DateUTC
2013-03-10 00:01:00,66.0,54.0,30.19,SE,128,1.0,4.0,65,0.00,,,0.00,,2013-03-10 05:01:00,
2013-03-10 00:11:00,66.0,54.0,30.19,SE,128,1.0,4.0,65,0.00,,,0.00,,2013-03-10 05:11:00,
2013-03-10 00:22:00,66.0,54.0,30.17,East,85,0.0,3.0,66,0.00,,,0.00,,2013-03-10 05:22:00,
2013-03-10 00:32:00,66.0,54.0,30.17,East,86,1.0,3.0,66,0.00,,,0.00,,2013-03-10 05:32:00,
2013-03-10 00:42:00,66.0,54.0,30.17,East,85,1.0,4.0,65,0.00,,,0.00,,2013-03-10 05:42:00,
2013-03-10 00:52:00,66.0,54.0,30.17,East,85,1.0,4.0,65,0.00,,,0.00,,2013-03-10 05:52:00,
2013-03-10 01:01:00,67.0,55.0,30.16,ENE,64,1.0,6.0,66,0.00,,,0.00,,2013-03-10 06:01:00,
2013-03-10 01:11:00,67.0,56.0,30.16,East,90,1.0,3.0,68,0.00,,,0.00,,2013-03-10 06:11:00,
2013-03-10 01:22:00,67.0,56.0,30.16,East,90,1.0,3.0,68,0.00,,,0.00,,2013-03-10 06:22:00,
2013-03-10 01:32:00,67.0,56.0,30.15,East,82,1.0,7.0,67,0.00,,,0.00,,2013-03-10 06:32:00,
2013-03-10 01:42:00,67.0,55.0,30.14,East,89,0.0,5.0,65,0.00,,,0.00,,2013-03-10 06:42:00,
2013-03-10 01:52:00,67.0,55.0,30.14,East,89,0.0,5.0,65,0.00,,,0.00,,2013-03-10 06:52:00,
2013-03-10 03:02:00,66.0,54.0,30.13,East,91,0.0,4.0,65,0.00,,,0.00,,2013-03-10 07:02:00,
2013-03-10 03:11:00,65.0,53.0,30.12,East,95,0.0,1.0,66,0.00,,,0.00,,2013-03-10 07:11:00,
2013-03-10 03:21:00,65.0,53.0,30.12,East,95,0.0,1.0,66,0.00,,,0.00,,2013-03-10 07:21:00,
2013-03-10 03:32:00,65.0,54.0,30.11,East,84,0.0,1.0,68,0.00,,,0.00,,2013-03-10 07:32:00,
2013-03-10 03:42:00,65.0,55.0,30.11,East,89,0.0,2.0,70,0.00,,,0.00,,2013-03-10 07:42:00,
2013-03-10 03:52:00,65.0,55.0,30.11,East,89,0.0,2.0,70,0.00,,,0.00,,2013-03-10 07:52:00,
2013-03-10 04:01:00,65.0,55.0,30.11,ENE,70,0.0,1.0,69,0.00,,,0.00,,2013-03-10 08:01:00,
2013-03-10 04:11:00,64.0,54.0,30.11,East,86,0.0,0.0,69,0.00,,,0.00,,2013-03-10 08:11:00,
2013-03-10 04:21:00,64.0,54.0,30.11,East,86,0.0,0.0,69,0.00,,,0.00,,2013-03-10 08:21:00,
2013-03-10 04:31:00,64.0,54.0,30.11,ENE,67,0.0,0.0,71,0.00,,,0.00,,2013-03-10 08:31:00,
2013-03-10 04:42:00,64.0,54.0,30.11,ENE,67,0.0,0.0,71,0.00,,,0.00,,2013-03-10 08:42:00,
2013-03-10 04:52:00,64.0,54.0,30.11,ENE,67,0.0,0.0,71,0.00,,,0.00,,2013-03-10 08:52:00,
2013-03-10 05:01:00,64.0,56.0,30.11,East,100,0.0,0.0,74,0.00,,,0.00,,2013-03-10 09:01:00,
2013-03-10 05:11:00,64.0,54.0,30.10,ESE,103,0.0,2.0,71,0.00,,,0.00,,2013-03-10 09:11:00,
2013-03-10 05:21:00,64.0,54.0,30.10,ESE,103,0.0,2.0,71,0.00,,,0.00,,2013-03-10 09:21:00,
2013-03-10 05:31:00,65.0,55.0,30.10,East,100,0.0,1.0,70,0.00,,,0.00,,2013-03-10 09:31:00,
2013-03-10 05:41:00,65.0,55.0,30.11,East,89,0.0,1.0,69,0.00,,,0.00,,2013-03-10 09:41:00,
2013-03-10 05:52:00,65.0,55.0,30.11,East,89,0.0,1.0,69,0.00,,,0.00,,2013-03-10 09:52:00,
2013-03-10 06:01:00,64.0,54.0,30.13,East,82,0.0,1.0,71,0.00,,,0.00,,2013-03-10 10:01:00,
2013-03-10 06:11:00,64.0,54.0,30.13,East,82,0.0,1.0,71,0.00,,,0.00,,2013-03-10 10:11:00,
2013-03-10 06:21:00,64.0,54.0,30.13,ENE,75,0.0,0.0,71,0.00,,,0.00,,2013-03-10 10:21:00,
2013-03-10 06:32:00,63.0,53.0,30.11,ENE,77,0.0,0.0,71,0.00,,,0.00,,2013-03-10 10:32:00,
2013-03-10 06:42:00,63.0,54.0,30.11,East,86,0.0,1.0,73,0.00,,,0.00,,2013-03-10 10:42:00,
2013-03-10 06:52:00,63.0,54.0,30.11,East,86,0.0,1.0,73,0.00,,,0.00,,2013-03-10 10:52:00,
2013-03-10 07:01:00,63.0,54.0,30.11,East,86,0.0,0.0,73,0.00,,,0.00,,2013-03-10 11:01:00,
2013-03-10 07:12:00,63.0,54.0,30.12,East,86,0.0,0.0,73,0.00,,,0.00,,2013-03-10 11:12:00,
2013-03-10 07:21:00,63.0,54.0,30.12,East,86,0.0,0.0,73,0.00,,,0.00,,2013-03-10 11:21:00,
2013-03-10 07:32:00,64.0,55.0,30.12,NE,53,0.0,0.0,72,0.00,,,0.00,,2013-03-10 11:32:00,
2013-03-10 07:42:00,64.0,55.0,30.12,NE,53,0.0,0.0,72,0.00,,,0.00,,2013-03-10 11:42:00,
2013-03-10 07:52:00,64.0,56.0,30.12,East,83,0.0,2.0,74,0.00,,,0.00,,2013-03-10 11:52:00,
2013-03-10 08:01:00,64.0,55.0,30.13,ENE,77,0.0,1.0,73,0.00,,,0.00,,2013-03-10 12:01:00,
2013-03-10 08:11:00,64.0,55.0,30.13,ENE,77,0.0,1.0,73,0.00,,,0.00,,2013-03-10 12:11:00,
2013-03-10 08:21:00,65.0,56.0,30.14,East,82,0.0,1.0,73,0.00,,,0.00,,2013-03-10 12:21:00,
2013-03-10 08:31:00,65.0,56.0,30.14,ENE,77,0.0,1.0,72,0.00,,,0.00,,2013-03-10 12:31:00,
2013-03-10 08:42:00,65.0,56.0,30.14,ENE,77,0.0,1.0,72,0.00,,,0.00,,2013-03-10 12:42:00,
2013-03-10 08:52:00,66.0,56.0,30.14,East,97,0.0,2.0,70,0.00,,,0.00,,2013-03-10 12:52:00,
2013-03-10 09:01:00,67.0,57.0,30.14,NNE,32,0.0,2.0,70,0.00,,,0.00,,2013-03-10 13:01:00,
2013-03-10 09:11:00,67.0,57.0,30.14,NNE,32,0.0,2.0,70,0.00,,,0.00,,2013-03-10 13:11:00,
2013-03-10 09:21:00,68.0,57.0,30.15,ENE,74,0.0,3.0,68,0.00,,,0.00,,2013-03-10 13:21:00,
2013-03-10 09:31:00,69.0,57.0,30.14,East,80,3.0,7.0,66,0.00,,,0.00,,2013-03-10 13:31:00,
2013-03-10 09:41:00,69.0,57.0,30.14,East,80,3.0,7.0,66,0.00,,,0.00,,2013-03-10 13:41:00,
2013-03-10 09:52:00,70.0,56.0,30.15,ENE,70,4.0,8.0,62,0.00,,,0.00,,2013-03-10 13:52:00,
2013-03-10 10:02:00,71.0,57.0,30.14,East,79,4.0,11.0,61,0.00,,,0.00,,2013-03-10 14:02:00,
2013-03-10 10:11:00,71.0,57.0,30.14,East,79,4.0,11.0,61,0.00,,,0.00,,2013-03-10 14:11:00,
2013-03-10 10:21:00,72.0,57.0,30.15,ENE,75,5.0,10.0,59,0.00,,,0.00,,2013-03-10 14:21:00,
2013-03-10 10:32:00,72.0,57.0,30.15,East,90,2.0,10.0,60,0.00,,,0.00,,2013-03-10 14:32:00,
2013-03-10 10:42:00,72.0,57.0,30.15,East,90,2.0,10.0,60,0.00,,,0.00,,2013-03-10 14:42:00,
2013-03-10 10:52:00,73.0,57.0,30.16,ENE,72,4.0,8.0,58,0.00,,,0.00,,2013-03-10 14:52:00,
2013-03-10 11:01:00,73.0,57.0,30.16,East,84,3.0,9.0,58,0.00,,,0.00,,2013-03-10 15:01:00,
2013-03-10 11:11:00,73.0,57.0,30.16,East,84,3.0,9.0,58,0.00,,,0.00,,2013-03-10 15:11:00,
2013-03-10 11:21:00,74.0,58.0,30.15,ENE,77,4.0,8.0,57,0.00,,,0.00,,2013-03-10 15:21:00,
2013-03-10 11:32:00,73.0,58.0,30.16,ENE,76,4.0,10.0,60,0.00,,,0.00,,2013-03-10 15:32:00,
2013-03-10 11:42:00,73.0,58.0,30.16,ENE,76,4.0,10.0,60,0.00,,,0.00,,2013-03-10 15:42:00,
2013-03-10 11:52:00,73.0,59.0,30.15,ENE,68,4.0,11.0,62,0.00,,,0.00,,2013-03-10 15:52:00,
2013-03-10 12:01:00,73.0,59.0,30.16,ENE,72,3.0,10.0,61,0.00,,,0.00,,2013-03-10 16:01:00,
2013-03-10 12:12:00,73.0,59.0,30.16,ENE,72,3.0,10.0,61,0.00,,,0.00,,2013-03-10 16:12:00,
2013-03-10 12:21:00,73.0,58.0,30.16,East,92,3.0,9.0,60,0.00,,,0.00,,2013-03-10 16:21:00,
2013-03-10 12:32:00,74.0,60.0,30.16,East,89,3.0,9.0,61,0.00,,,0.00,,2013-03-10 16:32:00,
2013-03-10 12:41:00,74.0,60.0,30.16,East,89,3.0,9.0,61,0.00,,,0.00,,2013-03-10 16:41:00,
2013-03-10 12:51:00,73.0,58.0,30.16,East,91,4.0,11.0,59,0.00,,,0.00,,2013-03-10 16:51:00,
2013-03-10 13:01:00,75.0,57.0,30.15,East,80,4.0,9.0,54,0.00,,,0.00,,2013-03-10 17:01:00,
2013-03-10 13:11:00,75.0,57.0,30.15,East,80,4.0,9.0,54,0.00,,,0.00,,2013-03-10 17:11:00,
2013-03-10 13:21:00,75.0,56.0,30.15,East,82,3.0,10.0,52,0.00,,,0.00,,2013-03-10 17:21:00,
2013-03-10 13:31:00,74.0,58.0,30.14,NNE,18,4.0,11.0,58,0.00,,,0.00,,2013-03-10 17:31:00,
2013-03-10 13:41:00,74.0,58.0,30.14,NNE,18,4.0,11.0,58,0.00,,,0.00,,2013-03-10 17:41:00,
2013-03-10 13:51:00,74.0,58.0,30.14,ENE,61,4.0,10.0,58,0.00,,,0.00,,2013-03-10 17:51:00,
2013-03-10 14:01:00,75.0,59.0,30.13,ESE,114,4.0,7.0,58,0.00,,,0.00,,2013-03-10 18:01:00,
2013-03-10 14:11:00,75.0,59.0,30.12,ESE,103,4.0,9.0,58,0.00,,,0.00,,2013-03-10 18:11:00,
2013-03-10 14:22:00,75.0,59.0,30.12,ESE,103,4.0,9.0,58,0.00,,,0.00,,2013-03-10 18:22:00,
2013-03-10 14:32:00,75.0,60.0,30.11,ESE,103,2.0,8.0,59,0.00,,,0.00,,2013-03-10 18:32:00,
2013-03-10 14:42:00,75.0,60.0,30.11,ESE,103,2.0,8.0,59,0.00,,,0.00,,2013-03-10 18:42:00,
2013-03-10 14:52:00,75.0,59.0,30.10,ENE,58,4.0,16.0,58,0.00,,,0.00,,2013-03-10 18:52:00,
2013-03-10 15:01:00,74.0,58.0,30.10,ESE,120,4.0,10.0,58,0.00,,,0.00,,2013-03-10 19:01:00,
2013-03-10 15:11:00,74.0,58.0,30.10,ESE,120,4.0,10.0,58,0.00,,,0.00,,2013-03-10 19:11:00,
2013-03-10 15:21:00,74.0,59.0,30.10,East,82,3.0,12.0,60,0.00,,,0.00,,2013-03-10 19:21:00,
2013-03-10 15:32:00,75.0,60.0,30.10,ENE,68,3.0,9.0,59,0.00,,,0.00,,2013-03-10 19:32:00,
2013-03-10 15:42:00,75.0,60.0,30.10,ENE,68,3.0,9.0,59,0.00,,,0.00,,2013-03-10 19:42:00,
2013-03-10 15:53:00,76.0,59.0,30.10,NE,39,4.0,11.0,56,0.00,,,0.00,,2013-03-10 19:53:00,
2013-03-10 16:02:00,77.0,60.0,30.09,ENE,67,3.0,11.0,55,0.00,,,0.00,,2013-03-10 20:02:00,
2013-03-10 16:12:00,77.0,60.0,30.09,ENE,67,3.0,11.0,55,0.00,,,0.00,,2013-03-10 20:12:00,
2013-03-10 16:22:00,77.0,61.0,30.09,East,83,2.0,11.0,57,0.00,,,0.00,,2013-03-10 20:22:00,
2013-03-10 16:32:00,76.0,60.0,30.09,East,79,5.0,11.0,58,0.00,,,0.00,,2013-03-10 20:32:00,
2013-03-10 16:43:00,76.0,60.0,30.09,East,79,5.0,11.0,58,0.00,,,0.00,,2013-03-10 20:43:00,
2013-03-10 16:53:00,74.0,60.0,30.09,ENE,76,5.0,11.0,61,0.00,,,0.00,,2013-03-10 20:53:00,
2013-03-10 17:02:00,76.0,61.0,30.08,ENE,74,4.0,10.0,59,0.00,,,0.00,,2013-03-10 21:02:00,
2013-03-10 17:12:00,76.0,61.0,30.08,ENE,74,4.0,10.0,59,0.00,,,0.00,,2013-03-10 21:12:00,
2013-03-10 17:23:00,75.0,61.0,30.08,East,91,3.0,9.0,61,0.00,,,0.00,,2013-03-10 21:23:00,
2013-03-10 17:32:00,75.0,61.0,30.08,East,86,5.0,8.0,61,0.00,,,0.00,,2013-03-10 21:32:00,
2013-03-10 17:42:00,75.0,61.0,30.08,East,86,5.0,8.0,61,0.00,,,0.00,,2013-03-10 21:42:00,
2013-03-10 17:52:00,73.0,58.0,30.09,SE,129,2.0,9.0,60,0.00,,,0.00,,2013-03-10 21:52:00,
2013-03-10 18:03:00,74.0,58.0,30.09,East,93,4.0,10.0,58,0.00,,,0.00,,2013-03-10 22:03:00,
2013-03-10 18:12:00,74.0,58.0,30.09,East,93,4.0,10.0,58,0.00,,,0.00,,2013-03-10 22:12:00,
2013-03-10 18:22:00,75.0,58.0,30.09,NNE,32,2.0,8.0,55,0.00,,,0.00,,2013-03-10 22:22:00,
2013-03-10 18:32:00,74.0,58.0,30.09,ESE,111,2.0,7.0,57,0.00,,,0.00,,2013-03-10 22:32:00,
2013-03-10 18:43:00,74.0,58.0,30.09,ESE,111,2.0,7.0,57,0.00,,,0.00,,2013-03-10 22:43:00,
2013-03-10 18:53:00,75.0,60.0,30.09,East,84,4.0,8.0,59,0.00,,,0.00,,2013-03-10 22:53:00,
2013-03-10 19:03:00,73.0,59.0,30.09,ENE,75,3.0,10.0,62,0.00,,,0.00,,2013-03-10 23:03:00,
2013-03-10 19:12:00,72.0,59.0,30.09,East,95,2.0,9.0,63,0.00,,,0.00,,2013-03-10 23:12:00,
2013-03-10 19:23:00,72.0,59.0,30.09,East,95,2.0,9.0,63,0.00,,,0.00,,2013-03-10 23:23:00,
2013-03-10 19:33:00,72.0,58.0,30.09,ENE,60,4.0,10.0,62,0.00,,,0.00,,2013-03-10 23:33:00,
2013-03-10 19:42:00,72.0,58.0,30.09,ENE,60,4.0,10.0,62,0.00,,,0.00,,2013-03-10 23:42:00,
2013-03-10 19:52:00,71.0,58.0,30.09,East,90,5.0,8.0,63,0.00,,,0.00,,2013-03-10 23:52:00,
2013-03-10 20:02:00,71.0,58.0,30.09,NNE,32,1.0,8.0,63,0.00,,,0.00,,2013-03-11 00:02:00,
2013-03-10 20:12:00,71.0,58.0,30.09,NNE,32,1.0,8.0,63,0.00,,,0.00,,2013-03-11 00:12:00,
2013-03-10 20:23:00,70.0,57.0,30.09,East,91,2.0,7.0,64,0.00,,,0.00,,2013-03-11 00:23:00,
2013-03-10 20:33:00,70.0,57.0,30.09,East,91,2.0,7.0,64,0.00,,,0.00,,2013-03-11 00:33:00,
2013-03-10 20:43:00,70.0,57.0,30.09,East,91,2.0,7.0,64,0.00,,,0.00,,2013-03-11 00:43:00,
2013-03-10 20:53:00,71.0,59.0,30.10,ENE,76,2.0,6.0,65,0.00,,,0.00,,2013-03-11 00:53:00,
2013-03-10 21:03:00,71.0,58.0,30.10,East,85,2.0,6.0,64,0.00,,,0.00,,2013-03-11 01:03:00,
2013-03-10 21:13:00,71.0,58.0,30.10,East,85,2.0,6.0,64,0.00,,,0.00,,2013-03-11 01:13:00,
2013-03-10 21:23:00,70.0,58.0,30.10,East,80,0.0,4.0,66,0.00,,,0.00,,2013-03-11 01:23:00,
2013-03-10 21:32:00,70.0,59.0,30.11,East,82,1.0,3.0,67,0.00,,,0.00,,2013-03-11 01:32:00,
2013-03-10 21:42:00,70.0,59.0,30.11,East,82,1.0,3.0,67,0.00,,,0.00,,2013-03-11 01:42:00,
2013-03-10 21:53:00,70.0,59.0,30.12,East,98,0.0,5.0,67,0.00,,,0.00,,2013-03-11 01:53:00,
2013-03-10 22:02:00,70.0,59.0,30.12,ESE,118,1.0,4.0,68,0.00,,,0.00,,2013-03-11 02:02:00,
2013-03-10 22:12:00,70.0,59.0,30.12,ESE,118,1.0,4.0,68,0.00,,,0.00,,2013-03-11 02:12:00,
2013-03-10 22:23:00,70.0,59.0,30.12,ESE,117,0.0,2.0,69,0.00,,,0.00,,2013-03-11 02:23:00,
2013-03-10 22:32:00,69.0,59.0,30.12,East,96,0.0,1.0,71,0.00,,,0.00,,2013-03-11 02:32:00,
2013-03-10 22:42:00,69.0,59.0,30.12,East,96,0.0,1.0,71,0.00,,,0.00,,2013-03-11 02:42:00,
2013-03-10 22:52:00,68.0,58.0,30.12,ESE,102,0.0,2.0,71,0.00,,,0.00,,2013-03-11 02:52:00,
2013-03-10 23:02:00,68.0,59.0,30.13,East,95,0.0,1.0,72,0.00,,,0.00,,2013-03-11 03:02:00,
2013-03-10 23:12:00,68.0,59.0,30.13,East,95,0.0,1.0,72,0.00,,,0.00,,2013-03-11 03:12:00,
2013-03-10 23:22:00,69.0,60.0,30.13,ENE,75,0.0,1.0,72,0.00,,,0.00,,2013-03-11 03:22:00,
2013-03-10 23:32:00,70.0,61.0,30.13,East,80,1.0,3.0,73,0.00,,,0.00,,2013-03-11 03:32:00,
2013-03-10 23:42:00,70.0,61.0,30.13,East,80,1.0,3.0,73,0.00,,,0.00,,2013-03-11 03:42:00,
2013-03-10 23:53:00,70.0,61.0,30.13,East,93,0.0,1.0,73,0.00,,,0.00,,2013-03-11 03:53:00,